Waarnemingen

Advertentie
Mijn weer
Goteborg/Landvetter, Zweden (2526): temperatuur & dauwpunt: 19.05.2019 21:00:00 - 25.05.2019 21:00:00 (CEST)Goteborg/Landvetter, Zweden (2526): windsnelheid: 19.05.2019 21:00:00 - 25.05.2019 21:00:00 (CEST)Goteborg/Landvetter, Zweden (2526): windrichting: 19.05.2019 21:00:00 - 25.05.2019 21:00:00 (CEST)Goteborg/Landvetter, Zweden (2526): luchtdruk: 19.05.2019 21:00:00 - 25.05.2019 21:00:00 (CEST)Goteborg/Landvetter, Zweden (2526): zicht: 19.05.2019 21:00:00 - 25.05.2019 21:00:00 (CEST)
Datum & Tijd tt [°C] td [°C] ff [km/u] ff [kn] dd ppp [hPa] vv [km]
25.05.2019 21:00:00 9,3 5,6 22 12 WZW 1007,7 50
25.05.2019 20:00:00 10,1 5,1 22 12 ZW 1008,2 50
25.05.2019 19:00:00 10,5 6,3 22 12 ZW 1008,6 50
25.05.2019 18:00:00 11,6 6,7 18 10 WZW 1008,7 40
25.05.2019 17:00:00 13,4 7,8 22 12 WZW 1008,6 50
25.05.2019 16:00:00 14,2 8,8 22 12 WZW 1008,7 45
25.05.2019 15:00:00 14,4 10,0 22 12 ZZW 1008,7 27
25.05.2019 14:00:00 12,5 8,8 22 12 ZZW 1009,2 30
25.05.2019 13:00:00 13,2 8,9 25 14 ZZW 1009,0 30
25.05.2019 12:00:00 13,5 8,8 18 10 ZZW 1009,1 40
25.05.2019 11:00:00 13,1 9,4 14 8 ZZW 1009,0 27
25.05.2019 10:00:00 12,9 9,0 14 8 ZW 1008,8 28
25.05.2019 09:00:00 12,0 9,0 14 8 ZW 1008,5 28
25.05.2019 08:00:00 11,5 9,2 11 6 ZW 1008,2 30
25.05.2019 07:00:00 9,3 8,5 14 8 WZW 1008,3 13
25.05.2019 06:00:00 8,5 8,1 11 6 W 1008,0 6
25.05.2019 05:00:00 8,1 7,7 11 6 W 1007,8 3,8
25.05.2019 04:00:00 8,3 7,9 11 6 WZW 1007,4 3,3
25.05.2019 03:00:00 8,3 7,9 11 6 WZW 1007,3 0,4
25.05.2019 02:00:00 8,0 7,6 7 4 WZW 1007,1 0,5
25.05.2019 01:00:00 7,0 6,3 4 2 ZW 1007,3 3,2
25.05.2019 00:00:00 8,4 7,3 7 4 ZW 1006,8 16
24.05.2019 23:00:00 9,1 7,5 14 8 WZW 1006,3 28
24.05.2019 22:00:00 9,5 7,6 14 8 WZW 1006,1 30
24.05.2019 21:00:00 9,6 7,0 14 8 WZW 1005,8 40
24.05.2019 20:00:00 9,7 6,8 14 8 WZW 1005,7 35
24.05.2019 19:00:00 9,9 6,6 22 12 WZW 1005,7 40
24.05.2019 18:00:00 10,2 7,1 18 10 WZW 1005,6 50
24.05.2019 17:00:00 9,6 7,7 22 12 W 1005,7 35
24.05.2019 16:00:00 9,6 7,2 22 12 WZW 1005,7 7
24.05.2019 15:00:00 9,3 7,9 18 10 ZW 1005,5 50
24.05.2019 14:00:00 9,5 8,4 22 12 ZW 1005,5 11
24.05.2019 13:00:00 9,3 7,9 25 14 ZW 1005,7 7
24.05.2019 12:00:00 9,6 8,0 29 16 ZZW 1006,0 19
24.05.2019 11:00:00 8,9 7,7 25 14 ZW 1006,5 6
24.05.2019 10:00:00 8,8 7,7 29 16 ZZW 1006,9 8
24.05.2019 09:00:00 8,8 7,7 25 14 ZZW 1007,1 6
24.05.2019 08:00:00 8,8 7,6 18 10 Z 1007,6 7
24.05.2019 07:00:00 9,2 7,1 18 10 Z 1007,9 40
24.05.2019 06:00:00 8,6 6,6 22 12 ZZW 1008,7 50
24.05.2019 05:00:00 8,2 6,3 22 12 ZZW 1009,0 45
24.05.2019 04:00:00 6,9 4,2 14 8 Z 1009,9 50
24.05.2019 03:00:00 7,3 5,1 14 8 ZZW 1010,0 50
24.05.2019 02:00:00 7,6 5,7 14 8 ZZW 1010,5 50
24.05.2019 01:00:00 9,4 7,2 14 8 Z 1010,9 28
24.05.2019 00:00:00 10,2 7,6 14 8 Z 1011,3 16
23.05.2019 23:00:00 10,4 8,2 14 8 Z 1011,7 35
23.05.2019 22:00:00 11,5 8,5 11 6 Z 1012,0 45
23.05.2019 21:00:00 12,7 8,6 11 6 Z 1012,3 40
23.05.2019 20:00:00 13,6 8,2 18 10 ZZW 1012,4 50
23.05.2019 19:00:00 14,8 7,8 29 16 ZZW 1012,6 40
23.05.2019 18:00:00 14,9 7,4 22 12 ZZW 1013,0 30
23.05.2019 17:00:00 15,3 5,2 22 12 ZZW 1013,4 35
23.05.2019 16:00:00 15,4 5,3 22 12 ZZW 1013,8 45
23.05.2019 15:00:00 15,2 4,3 22 12 ZZW 1014,2 35
23.05.2019 14:00:00 14,6 6,2 18 10 ZZW 1014,4 40
23.05.2019 13:00:00 14,3 5,6 18 10 ZZW 1014,6 40
23.05.2019 12:00:00 13,9 5,3 18 10 ZW 1014,8 45
23.05.2019 11:00:00 12,8 5,7 18 10 WZW 1014,9 40
23.05.2019 10:00:00 11,3 5,8 18 10 WZW 1014,9 50
23.05.2019 09:00:00 11,4 6,1 18 10 WZW 1014,7 50
23.05.2019 08:00:00 10,1 6,1 14 8 WZW 1014,6 45
23.05.2019 07:00:00 7,9 6,4 7 4 ZZW 1014,5 35
23.05.2019 06:00:00 5,8 5,1 7 4 ZW 1014,7 29
23.05.2019 05:00:00 5,7 4,8 7 4 ZW 1014,8 35
23.05.2019 04:00:00 7,2 5,3 11 6 W 1014,8 50
23.05.2019 03:00:00 8,1 5,9 14 8 WZW 1014,6 45
23.05.2019 02:00:00 8,3 5,9 14 8 WZW 1014,5 45
23.05.2019 01:00:00 8,6 6,0 14 8 W 1014,5 45
23.05.2019 00:00:00 8,7 6,1 14 8 W 1014,1 45
22.05.2019 23:00:00 9,0 6,4 18 10 W 1014,0 45
22.05.2019 22:00:00 9,3 7,2 18 10 W 1013,7 30
22.05.2019 21:00:00 9,5 7,8 18 10 W 1013,2 28
22.05.2019 20:00:00 9,5 8,4 18 10 W 1012,8 14
22.05.2019 19:00:00 10,1 9,0 14 8 W 1012,4 6
22.05.2019 18:00:00 10,5 9,6 14 8 W 1011,9 7
22.05.2019 17:00:00 11,2 9,9 18 10 W 1011,5 10
22.05.2019 16:00:00 13,5 11,4 18 10 WZW 1010,7 23
22.05.2019 15:00:00 16,1 12,5 18 10 ZW 1010,3 18
22.05.2019 14:00:00 16,5 12,8 14 8 WZW 1010,2 30
22.05.2019 13:00:00 17,6 13,1 11 6 W 1009,9 28
22.05.2019 12:00:00 16,5 12,5 11 6 ZW 1009,9 45
22.05.2019 11:00:00 16,4 13,1 11 6 ZW 1009,9 30
22.05.2019 10:00:00 15,8 12,5 11 6 Z 1009,7 21
22.05.2019 09:00:00 14,4 12,6 7 4 Z 1009,5 17
22.05.2019 08:00:00 14,6 12,5 11 6 ZZO 1009,4 23
22.05.2019 07:00:00 14,3 12,7 11 6 ZZO 1009,1 18
22.05.2019 06:00:00 14,8 13,7 7 4 Z 1008,8 10
22.05.2019 05:00:00 14,7 14,1 7 4 Z 1008,6 8
22.05.2019 04:00:00 14,5 13,9 7 4 ZO 1008,6 9
22.05.2019 03:00:00 14,9 14,1 7 4 ZO 1008,5 6
22.05.2019 02:00:00 15,0 14,0 7 4 ZO 1008,2 18
22.05.2019 01:00:00 15,8 14,5 7 4 ZO 1008,3 20
22.05.2019 00:00:00 16,3 14,8 11 6 ZO 1008,1 35
21.05.2019 23:00:00 17,2 15,7 11 6 ZO 1007,7 30
21.05.2019 22:00:00 17,5 16,0 11 6 ZO 1007,5 35
21.05.2019 21:00:00 17,9 16,8 4 2 Z 1006,7 16
21.05.2019 20:00:00 18,3 16,6 11 6 N 1006,3 35
21.05.2019 19:00:00 18,8 16,4 11 6 N 1006,3 35
21.05.2019 18:00:00 17,6 16,6 11 6 NNW 1006,6 17
21.05.2019 17:00:00 17,2 15,7 11 6 N 1006,8 45
21.05.2019 16:00:00 17,8 16,3 11 6 WZW 1007,1 3,4
21.05.2019 15:00:00 22,9 16,2 11 6 NNO 1006,5 25
21.05.2019 14:00:00 21,0 14,4 22 12 NNO 1007,0 35
21.05.2019 13:00:00 21,9 14,5 11 6 O 1006,7 40
21.05.2019 12:00:00 19,8 14,6 11 6 OZO 1007,2 45
21.05.2019 11:00:00 19,7 15,8 14 8 NNO 1007,2 14
21.05.2019 10:00:00 19,6 15,0 14 8 NNO 1007,0 30
21.05.2019 09:00:00 17,2 13,9 14 8 NNO 1007,4 30
21.05.2019 08:00:00 15,0 13,5 14 8 NNO 1007,5 29
21.05.2019 07:00:00 14,0 13,2 14 8 NNO 1007,8 13
21.05.2019 06:00:00 12,8 12,3 7 4 N 1007,9 10
21.05.2019 05:00:00 11,5 10,7 7 4 NNO 1007,8 1,9
21.05.2019 04:00:00 12,5 11,1 7 4 NO 1007,8 16
21.05.2019 03:00:00 12,3 11,5 7 4 NO 1007,8 10
21.05.2019 02:00:00 12,6 11,8 11 6 NNO 1008,1 5
21.05.2019 01:00:00 13,5 12,6 11 6 NNO 1008,1 10
21.05.2019 00:00:00 14,5 13,2 11 6 NO 1008,4 26
20.05.2019 23:00:00 14,0 12,6 11 6 NNO 1008,2 22
20.05.2019 22:00:00 15,9 12,3 11 6 NNO 1008,0 50
20.05.2019 21:00:00 17,6 12,7 7 4 NO 1007,9 45
20.05.2019 20:00:00 20,2 12,7 7 4 O 1007,6 45
20.05.2019 19:00:00 20,1 12,3 7 4 O 1007,1 40
20.05.2019 18:00:00 19,6 12,8 7 4 ZZO 1007,4 40
20.05.2019 17:00:00 19,3 14,1 11 6 ZZO 1007,9 40
20.05.2019 16:00:00 18,3 13,8 11 6 OZO 1008,1 21
20.05.2019 15:00:00 18,8 14,1 11 6 ZO 1008,0 35
20.05.2019 14:00:00 17,4 13,9 11 6 OZO 1008,2 45
20.05.2019 13:00:00 17,4 13,7 11 6 O 1007,7 40
20.05.2019 12:00:00 16,2 13,9 14 8 OZO 1008,0 40
20.05.2019 11:00:00 15,7 13,7 11 6 O 1007,8 35
20.05.2019 10:00:00 14,9 13,4 11 6 O 1007,9 22
20.05.2019 09:00:00 14,8 13,3 11 6 O 1007,9 40
20.05.2019 08:00:00 14,3 13,3 11 6 ONO 1007,8 28
20.05.2019 07:00:00 14,1 13,5 14 8 NO 1007,9 13
20.05.2019 06:00:00 13,3 12,8 14 8 NNO 1008,4 6
20.05.2019 05:00:00 13,3 12,8 14 8 NNO 1008,4 6
20.05.2019 04:00:00 13,2 12,6 14 8 NNO 1009,0 4,7
20.05.2019 03:00:00 13,3 12,4 11 6 N 1009,6 6
20.05.2019 02:00:00 15,2 12,7 11 6 NO 1010,1 50
20.05.2019 01:00:00 15,1 12,4 11 6 NNO 1010,5 50
20.05.2019 00:00:00 15,5 12,1 11 6 NO 1010,7 50
19.05.2019 23:00:00 15,4 11,4 11 6 NNO 1010,9 50
19.05.2019 22:00:00 17,8 11,4 14 8 NO 1010,6 50
19.05.2019 21:00:00 19,4 10,9 18 10 ONO 1010,1 50

tt = temperatuur
td = dauwpunt
ff = windsnelheid
dd = windrichting
ppp = luchtdruk
vv = zicht

Weerstations in de omgeving